Terminal Aerodrome Forecast
Issued by NWS Kansas City/Pleasant Hill, MO

Home | Current Version | Previous Version | Text Only | Print | Product List | Glossary On
Versions: 1 2 3 4 5 6 7 8 9 10 11 12 13 14 15 16 17 18 19 20 21 22
000
FTUS43 KEAX 190900 AAB
TAFMCI
TAF AMD
KMCI 190959Z 1910/2006 15010KT 5SM BR OVC003
     FM191500 15010KT P6SM OVC010
     FM191700 17011KT P6SM SCT025
      TEMPO 1917/1919 BKN025=

USA.gov is the U.S. government's official web portal to all federal, state and local government web resources and services.